Terminal Aerodrome Forecast
Issued by NWS

Home | Current Version | Previous Version | Text Only | Print | Product List | Glossary On
Versions: 1 2 3 4 5 6 7 8 9 10 11 12 13 14 15 16
000
FTUS43 KPAH 220116 AAB
TAFOWB
TAF AMD
KOWB 220116Z 2201/2224 18005KT P6SM FEW060 SCT200
      TEMPO 2201/2202 VRB05G15KT 5SM -TSRA BKN035CB
     FM220200 20005KT P6SM SCT200
     FM221200 21005KT P6SM SCT035 BKN200
     FM221500 25009KT P6SM VCSH BKN035 PROB30 2215/2221 4SM -TSRA BR
      BKN025CB=

USA.gov is the U.S. government's official web portal to all federal, state and local government web resources and services.